Regional Weather Roundup
Issued by NWS

Home | Current Version | Previous Version | Text Only | Print | Product List | Glossary Off
Versions: 1 2 3 4 5 6 7 8 9 10 11 12 13 14 15 16 17 18 19 20 21 22 23 24 25 26 27 28 29 30 31 32 33 34 35 36 37 38 39 40 41 42 43 44 45 46 47 48 49 50

000
ASUS43 KLOT 260808
RWRIL

ILLINOIS REGIONAL WEATHER ROUNDUP
NATIONAL WEATHER SERVICE CHICAGO/ROMEOVILLE IL
300 AM CDT TUE JUL 26 2016

NOTE: "FAIR" INDICATES FEW OR NO CLOUDS BELOW 12,000 FEET WITH NO
SIGNIFICANT WEATHER AND/OR OBSTRUCTIONS TO VISIBILITY.

* THESE STATIONS ARE NOT UNDER NWS QUALITY CONTROL. THEY ALSO MAY NOT
  REPORT WEATHER SUCH AS PRECIPITATION OR FOG.

ILZ001-002-007-009-015-016-024-260900-
NORTHWEST ILLINOIS

CITY           SKY/WX    TMP DP  RH WIND       PRES   REMARKS
MOLINE         CLEAR     67  64  90 CALM      30.04S
STERLING*      CLEAR     65  65 100 CALM      30.05S
SAVANNA*       CLEAR     66  65  98 CALM      30.05R
$$

ILZ003-004-008-010-011-017-018-260900-
NORTH CENTRAL ILLINOIS

CITY           SKY/WX    TMP DP  RH WIND       PRES   REMARKS
ROCKFORD       CLEAR     68  65  90 CALM      30.06R
FREEPORT*      CLEAR     63  62  96 CALM      30.07S
ROCHELLE*      PTCLDY    65  64  97 CALM      30.05S
DE KALB*       PTCLDY    67  65  93 N5        30.05S
$$

ILZ005-006-012>014-019>023-260900-
NORTHEAST ILLINOIS

CITY           SKY/WX    TMP DP  RH WIND       PRES   REMARKS
CHICAGO-OHARE  PTCLDY    72  64  76 CALM      30.03S
CHICAGO-MIDWAY PTCLDY    77  64  64 CALM      30.02S
AURORA         CLEAR     67  64  90 N3        30.04S
LANSING*       PTCLDY    71  64  79 E3        30.03S
JOLIET*        CLOUDY    69  68  95 CALM      30.02S
WAUKEGAN       CLEAR     68  63  84 CALM      30.03R
DUPAGE AIRPORT CLEAR     69  64  84 N5        30.03S
KANKAKEE*      MOCLDY    70  69  96 CALM      30.03S
WHEELING       CLEAR     70  65  84 CALM      30.04S
MORRIS*        PTCLDY    69  67  91 CALM      30.01S
ROMEOVILLE*    PTCLDY    68  64  86 NE3       30.03S
NORTHERLY ISL    N/A     71  64  78 CALM        N/A
$$

LMZ740>746-260900-
SOUTHERN LAKE MICHIGAN

STATION/POSITION SKY/WX   TEMP    WIND        PRES    VSBY  WAVE
                          AIR SEA DIR/SP/G                  HT/PER
                          (F)     (DEG/KT/KT) (MB)    (MI)  (FT/S)
SOUTHERN BUOY              73 73  250/  2/  2 1016.1F         0
WILMETTE HARBOR            69 67  320/  2/  2   N/A           0
HARRISON CRIB              76     230/  2/  2   N/A
BURNHAM HARBOR             71      CALM  /  1   N/A
CALUMET HARBOR             73     150/  1/  1 1016.2F
BURNS HARBOR               76      CALM  /  4 1017.3S
MICHIGAN CITY              72     130/  4/  4   N/A
MICHIGAN CITY 6N           74 75  140/  2/  4   N/A           1
ST. JOSEPH                 73 75   CALM  /  2 1016.6F         1
$$

ILZ025>027-034>036-040-047-049-050-058-095>099-260900-
WEST-CENTRAL ILLINOIS

CITY           SKY/WX    TMP DP  RH WIND       PRES   REMARKS
QUINCY         CLOUDY    70  67  90 N3        30.04S
GALESBURG*     CLEAR     65  65  97 CALM      30.05S
MACOMB*        CLEAR     65  65  97 CALM      30.07R
JACKSONVILLE*  CLOUDY    73  71  93 CALM      30.03R
PITTSFIELD*    CLOUDY    71  70  95 CALM      30.05R
$$

ILZ028>032-037-038-041>044-048-051>054-059>061-260900-
CENTRAL ILLINOIS

CITY           SKY/WX    TMP DP  RH WIND       PRES   REMARKS
BLOOMINGTON    PTCLDY    71  68  90 N5        30.04F
DECATUR        CLOUDY    74  70  87 N6        30.01F
PEORIA         PTCLDY    70  68  93 CALM      30.03S
LACON*         PTCLDY    68  67  97 CALM      30.03R
LINCOLN*       CLOUDY    72  71  97 CALM      30.02S
SPRINGFIELD    MOCLDY    73  70  90 N3        30.02S
TAYLORVILLE    CLOUDY    73  73  99 MISG      30.02R
$$

ILZ033-039-045-046-055>057-062-063-260900-
EAST-CENTRAL ILLINOIS

CITY           SKY/WX    TMP DP  RH WIND       PRES   REMARKS
CHAMPAIGN      CLOUDY    75  69  81 N7        30.02F
MATTOON        CLOUDY    74  71  91 CALM      30.00S
PARIS*         MOCLDY    73  72  97 CALM      30.01F
$$

ILZ079-100>102-260900-
SOUTHWEST ILLINOIS

CITY           SKY/WX    TMP DP  RH WIND       PRES   REMARKS
ALTON          CLOUDY    75  74  96 CALM      30.01S
BELLEVILLE     CLOUDY    76  76 100 NW2       29.99R
CAHOKIA*       CLOUDY    78  75  90 CALM      30.00S HX  81
SPARTA*        CLOUDY    76  75  97 CALM      30.01R
$$

ILZ064>066-069>071-074>076-080>082-084>086-088>090-092>094-260900-
SOUTH-CENTRAL ILLINOIS

CITY           SKY/WX    TMP DP  RH WIND       PRES   REMARKS
CARBONDALE     MOCLDY    76  74  93 CALM      29.99S
CAIRO*         FOG       73  73 100 CALM      29.99S VSB 1/4
EFFINGHAM*     CLOUDY    75  75 100 CALM      30.01S
MARION         FOG       75  75 100 CALM      29.99F VSB 1/2
MT. VERNON     MOCLDY    73  70  88 CALM      29.98S VSB 1
CENTRALIA*     PTCLDY    76  76 100 CALM      29.99S FOG
SALEM*         CLOUDY    76  74  94 CALM      29.99S FOG
METROPOLIS*      N/A     74  74  99 CALM      30.00S FOG
$$

ILZ067-068-072-073-078-083-087-091-260900-
SOUTHEAST ILLINOIS

CITY           SKY/WX    TMP DP  RH WIND       PRES   REMARKS
LAWRENCEVILLE  FOG       75  75 100 CALM      29.99S VSB 1/2
FLORA*         PTCLDY    74  74  97 CALM      29.99S
FAIRFIELD*     PTCLDY    73  73 100 CALM      29.98F FOG
HARRISBURG*    FOG       74  74 100 CALM      29.99S VSB 1/4
ROBINSON*        N/A     72  72 100 CALM      30.00S FOG
CARMI*         FOG       73  73 100 CALM      29.98S VSB 3/4
$$

ABBREVIATIONS USED IN REMARKS
   TC - TEMPERATURE IN CELSIUS
  WCI - WIND CHILL INDEX
   HX - HEAT INDEX
  VSB - VISIBILITY
$$





USA.gov is the U.S. government's official web portal to all federal, state and local government web resources and services.